Location: Antioch Baptist Church
(32.6696°N, 85.7327°W)
Time: 12:22:58
(UTC+00:00)

SPOT 5 - Pass Details

Date: 14 July 2020
Orbit: 622 x 815 km, 98.3° (Epoch: 09 August)

Event Time Altitude Azimuth Distance (km) Brightness Sun altitude
Exits shadow 03:41:54 71° 327° (NNW) 759 3.0 -27.8°
Drops below altitude 10° 03:46:06 10° 346° (NNW) 2,147 6.2 -28.3°
Sets 03:48:17 0° 347° (NNW) 3,037 7.2 -28.6°
